ANA475 RJTT-ROAH

Flight info

Callsign ANA475
Flight time 2h 20m
Altitude 38000
Route LAXAS Y56 TOHME Y54 KOHWA Y12 AYANO Y128 LAXEL Y52 TONAR Y525 IHEYA
Aircraft B772/H-SDE2E3FGHIJ5LORVWXY/LB1D1

Departure

Time 2026-04-21 10:18
Airport Tokyo Haneda International Airport (RJTT)

Arrival

Time 2026-04-21 12:38
Airport Naha International Airport (ROAH)
Time Latitude Longitude Altitude Speed Heading
2026-04-21 09:51 35.55050 139.79031 35 ft 0 kts 240°
2026-04-21 10:08 35.55051 139.79033 34 ft 1 kts 240°
2026-04-21 10:08 35.55058 139.79048 34 ft 2 kts 238°
2026-04-21 10:08 35.55066 139.79063 35 ft 2 kts 239°
2026-04-21 10:09 35.55071 139.79074 34 ft 2 kts 236°
2026-04-21 10:09 35.55082 139.79088 34 ft 2 kts 209°
2026-04-21 10:09 35.55096 139.79094 35 ft 2 kts 189°
2026-04-21 10:09 35.55111 139.79095 34 ft 2 kts 168°
2026-04-21 10:10 35.55123 139.79089 35 ft 0 kts 150°
2026-04-21 10:10 35.55127 139.79086 35 ft 0 kts 149°
2026-04-21 10:12 35.55098 139.79108 34 ft 10 kts 149°
2026-04-21 10:12 35.55032 139.79172 34 ft 13 kts 110°
2026-04-21 10:12 35.55068 139.79283 34 ft 11 kts 60°
2026-04-21 10:12 35.55035 139.79375 34 ft 14 kts 142°
2026-04-21 10:13 35.54941 139.79442 34 ft 17 kts 148°
2026-04-21 10:13 35.54821 139.79526 34 ft 21 kts 150°
2026-04-21 10:13 35.54689 139.79620 34 ft 22 kts 150°
2026-04-21 10:13 35.54545 139.79723 34 ft 23 kts 150°
2026-04-21 10:14 35.54407 139.79822 34 ft 22 kts 149°
2026-04-21 10:14 35.54267 139.79921 34 ft 23 kts 150°
2026-04-21 10:14 35.54155 139.80000 34 ft 10 kts 150°
2026-04-21 10:14 35.54076 139.80055 34 ft 16 kts 150°
2026-04-21 10:15 35.53963 139.80136 34 ft 19 kts 150°
2026-04-21 10:15 35.53864 139.80217 34 ft 12 kts 114°
2026-04-21 10:15 35.53890 139.80316 34 ft 12 kts 58°
2026-04-21 10:15 35.53938 139.80415 34 ft 13 kts 60°
2026-04-21 10:16 35.53991 139.80490 34 ft 9 kts
2026-04-21 10:16 35.54023 139.80479 34 ft 0 kts 330°
2026-04-21 10:17 35.54102 139.80423 34 ft 43 kts 329°
2026-04-21 10:17 35.54584 139.80078 35 ft 113 kts 330°
2026-04-21 10:18 35.55420 139.79509 176 ft 151 kts 333°
2026-04-21 10:18 35.56366 139.78853 754 ft 161 kts 332°
2026-04-21 10:18 35.57339 139.78374 1526 ft 142 kts 356°
2026-04-21 10:18 35.58351 139.78464 1560 ft 150 kts 18°
2026-04-21 10:19 35.59301 139.79141 1552 ft 163 kts 43°
2026-04-21 10:19 35.59925 139.80376 1550 ft 180 kts 70°
2026-04-21 10:19 35.59970 139.81924 1565 ft 202 kts 99°
2026-04-21 10:19 35.59320 139.83694 1679 ft 227 kts 114°
2026-04-21 10:20 35.58537 139.85471 1833 ft 248 kts 114°
2026-04-21 10:20 35.57673 139.87410 2240 ft 259 kts 115°
2026-04-21 10:20 35.56804 139.89351 2854 ft 260 kts 115°
2026-04-21 10:20 35.55924 139.91316 3358 ft 266 kts 115°
2026-04-21 10:21 35.54883 139.93274 3875 ft 275 kts 131°
2026-04-21 10:21 35.53422 139.94493 4401 ft 280 kts 158°
2026-04-21 10:21 35.51458 139.94881 4830 ft 287 kts 185°
2026-04-21 10:21 35.49485 139.94539 5371 ft 288 kts 193°
2026-04-21 10:22 35.47464 139.94049 6021 ft 288 kts 194°
2026-04-21 10:22 35.45598 139.93210 6552 ft 284 kts 216°
2026-04-21 10:22 35.44081 139.91617 7054 ft 284 kts 230°
2026-04-21 10:22 35.42726 139.89859 7771 ft 280 kts 232°
2026-04-21 10:23 35.41408 139.88101 8398 ft 279 kts 231°
2026-04-21 10:23 35.40078 139.86327 8947 ft 280 kts 232°
2026-04-21 10:23 35.38736 139.84540 9516 ft 281 kts 231°
2026-04-21 10:23 35.37408 139.82776 10131 ft 281 kts 232°
2026-04-21 10:24 35.36002 139.80904 10406 ft 296 kts 231°
2026-04-21 10:24 35.34557 139.78983 10535 ft 315 kts 231°
2026-04-21 10:24 35.33015 139.76935 10640 ft 336 kts 231°
2026-04-21 10:24 35.31334 139.74739 10786 ft 356 kts 228°
2026-04-21 10:25 35.29481 139.72733 11148 ft 369 kts 225°
2026-04-21 10:25 35.27623 139.70798 11797 ft 371 kts 225°
2026-04-21 10:25 35.25602 139.68697 12629 ft 371 kts 225°
2026-04-21 10:25 35.23612 139.66625 13367 ft 375 kts 226°
2026-04-21 10:26 35.21590 139.64517 14107 ft 379 kts 227°
2026-04-21 10:26 35.19567 139.62411 15058 ft 378 kts 227°
2026-04-21 10:26 35.17535 139.60298 16034 ft 376 kts 227°
2026-04-21 10:26 35.15527 139.58209 16999 ft 373 kts 227°
2026-04-21 10:27 35.13530 139.56133 17803 ft 374 kts 228°
2026-04-21 10:27 35.11527 139.54042 18582 ft 374 kts 229°
2026-04-21 10:27 35.09681 139.51733 19216 ft 371 kts 237°
2026-04-21 10:27 35.08184 139.49155 19767 ft 371 kts 245°
2026-04-21 10:28 35.07051 139.46341 20486 ft 367 kts 253°
2026-04-21 10:28 35.06287 139.43347 21220 ft 364 kts 259°
2026-04-21 10:28 35.05770 139.40253 21876 ft 365 kts 262°
2026-04-21 10:28 35.05276 139.37175 22497 ft 367 kts 262°
2026-04-21 10:29 35.04770 139.34074 23091 ft 370 kts 260°
2026-04-21 10:29 35.04249 139.30917 23742 ft 371 kts 261°
2026-04-21 10:29 35.03749 139.27908 24347 ft 372 kts 261°
2026-04-21 10:29 35.03230 139.24795 24858 ft 376 kts 260°
2026-04-21 10:30 35.02713 139.21698 25345 ft 380 kts 261°
2026-04-21 10:30 35.02200 139.18648 25902 ft 381 kts 261°
2026-04-21 10:30 35.01661 139.15439 26488 ft 383 kts 261°
2026-04-21 10:30 35.01117 139.12212 27016 ft 386 kts 262°
2026-04-21 10:31 35.00596 139.09119 27447 ft 390 kts 261°
2026-04-21 10:31 35.00046 139.05870 27927 ft 393 kts 262°
2026-04-21 10:31 34.99511 139.02710 28368 ft 396 kts 262°
2026-04-21 10:31 34.98959 138.99383 28935 ft 396 kts 263°
2026-04-21 10:32 34.98673 138.96500 29330 ft 397 kts 269°
2026-04-21 10:32 34.98510 138.93411 29722 ft 400 kts 269°
2026-04-21 10:32 34.98338 138.89993 30222 ft 402 kts 268°
2026-04-21 10:32 34.98168 138.86655 30744 ft 403 kts 268°
2026-04-21 10:33 34.97995 138.83296 31325 ft 403 kts 268°
2026-04-21 10:33 34.97816 138.79886 31967 ft 401 kts 268°
2026-04-21 10:33 34.97638 138.76497 32621 ft 399 kts 267°
2026-04-21 10:33 34.97466 138.73257 33294 ft 395 kts 269°
2026-04-21 10:34 34.97293 138.69994 33874 ft 393 kts 267°
2026-04-21 10:34 34.97121 138.66805 34477 ft 391 kts 268°
2026-04-21 10:34 34.96960 138.63805 35071 ft 388 kts 267°
2026-04-21 10:34 34.96788 138.60625 35675 ft 385 kts 267°
2026-04-21 10:35 34.96609 138.57352 36297 ft 382 kts 267°
2026-04-21 10:35 34.96434 138.54146 36835 ft 380 kts 267°
2026-04-21 10:35 34.96255 138.50902 37350 ft 377 kts 267°
2026-04-21 10:35 34.96079 138.47700 37774 ft 376 kts 266°
2026-04-21 10:36 34.95906 138.44601 37956 ft 378 kts 267°
2026-04-21 10:36 34.95548 138.38208 37957 ft 374 kts 268°
2026-04-21 10:37 34.95194 138.31934 37982 ft 374 kts 268°
2026-04-21 10:37 34.94839 138.25723 37987 ft 372 kts 268°
2026-04-21 10:38 34.94477 138.19417 37968 ft 375 kts 266°
2026-04-21 10:38 34.94110 138.13098 37991 ft 374 kts 267°
2026-04-21 10:39 34.93736 138.06709 37980 ft 374 kts 267°
2026-04-21 10:39 34.93365 138.00433 37989 ft 374 kts 268°
2026-04-21 10:40 34.93034 137.94870 37985 ft 374 kts 268°
2026-04-21 10:40 34.92652 137.88524 38001 ft 375 kts 268°
2026-04-21 10:41 34.92272 137.82254 37986 ft 374 kts 268°
2026-04-21 10:41 34.91936 137.76750 37993 ft 375 kts 267°
2026-04-21 10:42 34.91584 137.71056 37999 ft 376 kts 267°
2026-04-21 10:42 34.90653 137.65243 38003 ft 377 kts 257°
2026-04-21 10:43 34.88916 137.59345 37992 ft 384 kts 255°
2026-04-21 10:43 34.87515 137.54684 37996 ft 384 kts 255°
2026-04-21 10:44 34.85662 137.48523 38000 ft 382 kts 255°
2026-04-21 10:44 34.84043 137.42972 37985 ft 382 kts 256°
2026-04-21 10:45 34.82396 137.37189 37996 ft 382 kts 256°
2026-04-21 10:45 34.80803 137.31615 38004 ft 384 kts 255°
2026-04-21 10:46 34.79290 137.26341 38020 ft 383 kts 255°
2026-04-21 10:46 34.77547 137.20281 38016 ft 383 kts 255°
2026-04-21 10:47 34.75791 137.14191 38022 ft 384 kts 255°
2026-04-21 10:47 34.74012 137.08032 38033 ft 384 kts 255°
2026-04-21 10:48 34.72206 137.01929 38016 ft 383 kts 252°
2026-04-21 10:48 34.69556 136.96256 38017 ft 391 kts 241°
2026-04-21 10:49 34.65716 136.91347 38028 ft 413 kts 229°
2026-04-21 10:49 34.61116 136.87079 38056 ft 413 kts 227°
2026-04-21 10:50 34.56520 136.82854 38030 ft 413 kts 227°
2026-04-21 10:50 34.51888 136.78589 38025 ft 411 kts 227°
2026-04-21 10:51 34.47295 136.74359 38041 ft 413 kts 227°
2026-04-21 10:51 34.42680 136.70110 38037 ft 413 kts 227°
2026-04-21 10:52 34.38090 136.65889 38042 ft 414 kts 227°
2026-04-21 10:52 34.33469 136.61647 38039 ft 413 kts 227°
2026-04-21 10:53 34.28893 136.57436 38033 ft 411 kts 228°
2026-04-21 10:53 34.24369 136.53181 38052 ft 412 kts 229°
2026-04-21 10:54 34.19785 136.48880 38054 ft 413 kts 228°
2026-04-21 10:54 34.15230 136.44615 38059 ft 412 kts 228°
2026-04-21 10:55 34.10686 136.40379 38047 ft 415 kts 226°
2026-04-21 10:55 34.08178 136.38446 38050 ft 426 kts 219°
2026-04-21 10:55 34.05510 136.36743 38040 ft 424 kts 218°
2026-04-21 10:56 34.00280 136.33452 38079 ft 427 kts 218°
2026-04-21 10:56 33.94960 136.30106 38073 ft 426 kts 218°
2026-04-21 10:57 33.89668 136.26773 38080 ft 430 kts 218°
2026-04-21 10:57 33.84382 136.23456 38064 ft 425 kts 218°
2026-04-21 10:58 33.79118 136.20146 38068 ft 432 kts 218°
2026-04-21 10:58 33.73729 136.16769 38066 ft 431 kts 218°
2026-04-21 10:59 33.68374 136.13419 38071 ft 428 kts 218°
2026-04-21 10:59 33.63003 136.10059 38067 ft 430 kts 218°
2026-04-21 11:00 33.57678 136.06734 38055 ft 429 kts 218°
2026-04-21 11:00 33.52405 136.03445 38064 ft 432 kts 218°
2026-04-21 11:01 33.47031 136.00099 38056 ft 430 kts 218°
2026-04-21 11:01 33.41679 135.96771 38051 ft 431 kts 217°
2026-04-21 11:02 33.33701 135.91820 38053 ft 429 kts 217°
2026-04-21 11:02 33.28342 135.88500 38046 ft 431 kts 218°
2026-04-21 11:03 33.22964 135.85170 38046 ft 433 kts 217°
2026-04-21 11:03 33.17628 135.81876 38046 ft 429 kts 217°
2026-04-21 11:04 33.12240 135.78548 38042 ft 434 kts 217°
2026-04-21 11:04 33.06878 135.75246 38034 ft 430 kts 217°
2026-04-21 11:05 33.01505 135.71938 38037 ft 434 kts 217°
2026-04-21 11:05 32.96102 135.68619 38034 ft 432 kts 217°
2026-04-21 11:06 32.90808 135.65373 38031 ft 427 kts 217°
2026-04-21 11:06 32.85461 135.62091 38036 ft 435 kts 217°
2026-04-21 11:07 32.80127 135.58829 38039 ft 432 kts 217°
2026-04-21 11:07 32.74663 135.55489 38039 ft 432 kts 217°
2026-04-21 11:08 32.69311 135.52225 38038 ft 431 kts 217°
2026-04-21 11:08 32.63931 135.48943 38036 ft 435 kts 217°
2026-04-21 11:09 32.58563 135.45676 38039 ft 435 kts 217°
2026-04-21 11:09 32.53149 135.42384 38039 ft 437 kts 216°
2026-04-21 11:10 32.47679 135.39067 38038 ft 433 kts 216°
2026-04-21 11:10 32.42321 135.35817 38040 ft 437 kts 217°
2026-04-21 11:11 32.36987 135.32588 38056 ft 437 kts 216°
2026-04-21 11:11 32.31546 135.29298 38060 ft 437 kts 216°
2026-04-21 11:12 32.26086 135.26004 38058 ft 437 kts 216°
2026-04-21 11:12 32.20631 135.22714 38057 ft 437 kts 216°
2026-04-21 11:13 32.15195 135.19443 38056 ft 436 kts 216°
2026-04-21 11:13 32.10027 135.15793 38063 ft 427 kts 226°
2026-04-21 11:14 32.05883 135.10788 38060 ft 419 kts 238°
2026-04-21 11:14 32.02328 135.05290 38047 ft 412 kts 238°
2026-04-21 11:15 31.98823 134.99887 38051 ft 413 kts 239°
2026-04-21 11:15 31.95291 134.94467 38048 ft 415 kts 238°
2026-04-21 11:16 31.91767 134.89079 38049 ft 415 kts 238°
2026-04-21 11:16 31.88200 134.83637 38046 ft 416 kts 238°
2026-04-21 11:17 31.84624 134.78194 38044 ft 414 kts 238°
2026-04-21 11:17 31.81061 134.72775 38050 ft 415 kts 238°
2026-04-21 11:18 31.77478 134.67335 38043 ft 414 kts 238°
2026-04-21 11:18 31.73888 134.61893 38045 ft 417 kts 238°
2026-04-21 11:19 31.70307 134.56474 38041 ft 414 kts 238°
2026-04-21 11:19 31.66752 134.51102 38037 ft 415 kts 238°
2026-04-21 11:20 31.63165 134.45686 38036 ft 417 kts 238°
2026-04-21 11:20 31.59581 134.40283 38038 ft 417 kts 237°
2026-04-21 11:21 31.56038 134.34952 38031 ft 416 kts 237°
2026-04-21 11:21 31.52459 134.29573 38057 ft 416 kts 237°
2026-04-21 11:22 31.48868 134.24184 38058 ft 416 kts 237°
2026-04-21 11:22 31.45278 134.18800 38053 ft 419 kts 237°
2026-04-21 11:23 31.41684 134.13423 38050 ft 418 kts 237°
2026-04-21 11:23 31.38061 134.08008 38050 ft 417 kts 237°
2026-04-21 11:24 31.34467 134.02644 38046 ft 415 kts 237°
2026-04-21 11:24 31.30896 133.97322 38052 ft 415 kts 237°
2026-04-21 11:25 31.27314 133.91988 38048 ft 416 kts 237°
2026-04-21 11:25 31.23700 133.86616 38046 ft 417 kts 237°
2026-04-21 11:26 31.20105 133.81280 38048 ft 415 kts 237°
2026-04-21 11:26 31.16480 133.75905 38044 ft 421 kts 237°
2026-04-21 11:27 31.12854 133.70538 38044 ft 418 kts 236°
2026-04-21 11:27 31.09216 133.65161 38043 ft 419 kts 237°
2026-04-21 11:28 31.05576 133.59787 38042 ft 418 kts 237°
2026-04-21 11:28 31.01949 133.54439 38040 ft 418 kts 237°
2026-04-21 11:29 30.98324 133.49098 38039 ft 419 kts 237°
2026-04-21 11:29 30.94691 133.43751 38042 ft 420 kts 236°
2026-04-21 11:30 30.91064 133.38425 38040 ft 420 kts 237°
2026-04-21 11:30 30.87385 133.33025 38058 ft 421 kts 236°
2026-04-21 11:31 30.83725 133.27663 38059 ft 422 kts 236°
2026-04-21 11:31 30.80068 133.22311 38059 ft 421 kts 236°
2026-04-21 11:32 30.76372 133.16910 38050 ft 422 kts 236°
2026-04-21 11:32 30.72716 133.11575 38053 ft 423 kts 235°
2026-04-21 11:33 30.69055 133.06241 38054 ft 424 kts 236°
2026-04-21 11:33 30.65357 133.00858 38049 ft 425 kts 236°
2026-04-21 11:34 30.61643 132.95460 38057 ft 425 kts 236°
2026-04-21 11:34 30.57939 132.90085 38056 ft 425 kts 235°
2026-04-21 11:35 30.54268 132.84767 38061 ft 422 kts 235°
2026-04-21 11:35 30.50558 132.79395 38058 ft 425 kts 235°
2026-04-21 11:36 30.46877 132.74074 38050 ft 424 kts 235°
2026-04-21 11:36 30.43175 132.68730 38051 ft 424 kts 235°
2026-04-21 11:37 30.39438 132.63344 38051 ft 426 kts 235°
2026-04-21 11:37 30.35737 132.58017 38046 ft 423 kts 234°
2026-04-21 11:38 30.32033 132.52690 38044 ft 425 kts 235°
2026-04-21 11:38 30.28307 132.47340 38044 ft 424 kts 234°
2026-04-21 11:39 30.24625 132.42062 38042 ft 421 kts 234°
2026-04-21 11:39 30.20930 132.36771 38044 ft 422 kts 234°
2026-04-21 11:40 30.17246 132.31502 38051 ft 423 kts 234°
2026-04-21 11:40 30.13532 132.26198 38052 ft 420 kts 233°
2026-04-21 11:41 30.09812 132.20892 38051 ft 425 kts 234°
2026-04-21 11:41 30.06093 132.15596 38053 ft 422 kts 234°
2026-04-21 11:42 30.02365 132.10292 38029 ft 422 kts 234°
2026-04-21 11:42 29.98657 132.05025 38039 ft 423 kts 234°
2026-04-21 11:43 29.94972 131.99795 38038 ft 422 kts 233°
2026-04-21 11:43 29.91234 131.94499 38040 ft 424 kts 233°
2026-04-21 11:44 29.87501 131.89218 38054 ft 420 kts 234°
2026-04-21 11:44 29.83779 131.83957 38055 ft 423 kts 234°
2026-04-21 11:45 29.80021 131.78709 38051 ft 424 kts 232°
2026-04-21 11:45 29.76188 131.73537 38052 ft 425 kts 233°
2026-04-21 11:46 29.72360 131.68368 38049 ft 425 kts 232°
2026-04-21 11:46 29.68518 131.63184 38042 ft 423 kts 232°
2026-04-21 11:47 29.64690 131.58022 38039 ft 428 kts 232°
2026-04-21 11:47 29.60793 131.52773 38044 ft 426 kts 232°
2026-04-21 11:48 29.56958 131.47612 38035 ft 426 kts 232°
2026-04-21 11:48 29.53093 131.42418 38036 ft 427 kts 233°
2026-04-21 11:49 29.49194 131.37184 38044 ft 429 kts 232°
2026-04-21 11:49 29.45299 131.31966 38056 ft 426 kts 232°
2026-04-21 11:50 29.41421 131.26772 38054 ft 430 kts 232°
2026-04-21 11:50 29.37518 131.21553 38052 ft 429 kts 232°
2026-04-21 11:51 29.33633 131.16367 38055 ft 429 kts 232°
2026-04-21 11:51 29.29747 131.11183 38040 ft 432 kts 232°
2026-04-21 11:52 29.25802 131.05930 38041 ft 433 kts 232°
2026-04-21 11:52 29.21874 131.00705 38031 ft 431 kts 232°
2026-04-21 11:53 29.17957 130.95502 38029 ft 432 kts 232°
2026-04-21 11:53 29.13979 130.90222 38033 ft 435 kts 232°
2026-04-21 11:54 29.10011 130.84966 38026 ft 433 kts 232°
2026-04-21 11:54 29.06061 130.79738 38026 ft 435 kts 231°
2026-04-21 11:55 29.02070 130.74463 38022 ft 435 kts 232°
2026-04-21 11:55 28.98095 130.69215 38024 ft 437 kts 231°
2026-04-21 11:56 28.94073 130.63915 38021 ft 437 kts 232°
2026-04-21 11:56 28.90082 130.58659 38026 ft 437 kts 231°
2026-04-21 11:57 28.86095 130.53416 38025 ft 435 kts 231°
2026-04-21 11:57 28.82124 130.48202 38024 ft 436 kts 231°
2026-04-21 11:58 28.78124 130.42956 38027 ft 435 kts 231°
2026-04-21 11:58 28.74137 130.37733 38016 ft 435 kts 232°
2026-04-21 11:59 28.70087 130.32436 38033 ft 435 kts 231°
2026-04-21 11:59 28.66125 130.27258 38034 ft 435 kts 231°
2026-04-21 12:00 28.62138 130.22055 38034 ft 433 kts 231°
2026-04-21 12:00 28.58170 130.16884 38036 ft 435 kts 231°
2026-04-21 12:01 28.54183 130.11694 38034 ft 433 kts 231°
2026-04-21 12:01 28.50206 130.06525 38028 ft 434 kts 231°
2026-04-21 12:02 28.44252 129.98796 38027 ft 433 kts 231°
2026-04-21 12:03 28.40278 129.93646 38025 ft 433 kts 231°
2026-04-21 12:03 28.36330 129.88536 38037 ft 431 kts 231°
2026-04-21 12:04 28.32357 129.83398 38033 ft 432 kts 231°
2026-04-21 12:04 28.28374 129.78256 38036 ft 432 kts 231°
2026-04-21 12:05 28.24413 129.73148 38037 ft 431 kts 231°
2026-04-21 12:05 28.20402 129.67981 38036 ft 434 kts 231°
2026-04-21 12:06 28.16413 129.62849 38042 ft 433 kts 231°
2026-04-21 12:06 28.12438 129.57744 38029 ft 431 kts 231°
2026-04-21 12:07 28.08436 129.52606 38024 ft 435 kts 231°
2026-04-21 12:07 28.04428 129.47469 38021 ft 435 kts 231°
2026-04-21 12:08 28.00402 129.42316 38014 ft 437 kts 231°
2026-04-21 12:08 27.96415 129.37218 38019 ft 438 kts 231°
2026-04-21 12:09 27.92369 129.32051 38038 ft 437 kts 231°
2026-04-21 12:09 27.88317 129.26881 38049 ft 437 kts 231°
2026-04-21 12:10 27.84338 129.21812 38041 ft 435 kts 231°
2026-04-21 12:10 27.80607 129.17065 38042 ft 428 kts 231°
2026-04-21 12:10 27.78657 129.14589 38041 ft 414 kts 231°
2026-04-21 12:11 27.76746 129.12163 38044 ft 400 kts 231°
2026-04-21 12:11 27.74966 129.09904 38038 ft 389 kts 231°
2026-04-21 12:11 27.73151 129.07602 38046 ft 385 kts 231°
2026-04-21 12:12 27.69684 129.03203 38048 ft 394 kts 231°
2026-04-21 12:12 27.65994 128.98532 38045 ft 391 kts 231°
2026-04-21 12:13 27.62352 128.93926 38044 ft 390 kts 231°
2026-04-21 12:13 27.58728 128.89346 38041 ft 391 kts 231°
2026-04-21 12:14 27.55087 128.84752 38034 ft 390 kts 231°
2026-04-21 12:14 27.51456 128.80174 38034 ft 393 kts 231°
2026-04-21 12:15 27.47782 128.75548 38025 ft 392 kts 231°
2026-04-21 12:15 27.44131 128.70926 38024 ft 392 kts 234°
2026-04-21 12:16 27.41126 128.65816 38032 ft 389 kts 242°
2026-04-21 12:16 27.38372 128.60559 38015 ft 386 kts 242°
2026-04-21 12:16 27.37063 128.58064 37702 ft 380 kts 241°
2026-04-21 12:17 27.35712 128.55493 36860 ft 386 kts 241°
2026-04-21 12:17 27.34332 128.52869 35859 ft 394 kts 241°
2026-04-21 12:17 27.32923 128.50192 35072 ft 397 kts 241°
2026-04-21 12:17 27.31527 128.47545 34415 ft 397 kts 241°
2026-04-21 12:18 27.30134 128.44905 33777 ft 397 kts 240°
2026-04-21 12:18 27.28722 128.42230 33037 ft 399 kts 241°
2026-04-21 12:18 27.27282 128.39505 32226 ft 403 kts 241°
2026-04-21 12:18 27.25855 128.36804 31431 ft 406 kts 241°
2026-04-21 12:19 27.24405 128.34064 30704 ft 408 kts 240°
2026-04-21 12:19 27.22955 128.31323 29627 ft 419 kts 241°
2026-04-21 12:19 27.21446 128.28473 28256 ft 434 kts 240°
2026-04-21 12:19 27.19887 128.25531 27209 ft 440 kts 240°
2026-04-21 12:20 27.18347 128.22629 26752 ft 432 kts 240°
2026-04-21 12:20 27.16815 128.19743 26414 ft 422 kts 240°
2026-04-21 12:20 27.15300 128.16891 25869 ft 417 kts 240°
2026-04-21 12:20 27.13806 128.14081 25245 ft 414 kts 240°
2026-04-21 12:21 27.12329 128.11304 24623 ft 412 kts 240°
2026-04-21 12:21 27.10855 128.08534 24032 ft 409 kts 240°
2026-04-21 12:21 27.09393 128.05788 23519 ft 404 kts 240°
2026-04-21 12:21 27.07941 128.03062 22955 ft 400 kts 240°
2026-04-21 12:22 27.06509 128.00375 22353 ft 398 kts 240°
2026-04-21 12:22 27.04912 127.97845 21736 ft 397 kts 232°
2026-04-21 12:22 27.02981 127.95615 21153 ft 397 kts 224°
2026-04-21 12:22 27.00754 127.93733 20535 ft 398 kts 215°
2026-04-21 12:23 26.98271 127.92247 19896 ft 400 kts 207°
2026-04-21 12:23 26.95659 127.91226 19266 ft 402 kts 198°
2026-04-21 12:23 26.92857 127.90657 18646 ft 404 kts 189°
2026-04-21 12:23 26.90010 127.90571 18067 ft 404 kts 182°
2026-04-21 12:24 26.87183 127.90659 17536 ft 400 kts 182°
2026-04-21 12:24 26.84428 127.90750 17021 ft 396 kts 181°
2026-04-21 12:24 26.81653 127.90840 16477 ft 392 kts 182°
2026-04-21 12:24 26.78961 127.90925 15917 ft 390 kts 181°
2026-04-21 12:25 26.76248 127.91009 15361 ft 386 kts 181°
2026-04-21 12:25 26.73560 127.91090 14800 ft 384 kts 181°
2026-04-21 12:25 26.70882 127.91172 14257 ft 380 kts 181°
2026-04-21 12:25 26.68252 127.91251 13700 ft 377 kts 181°
2026-04-21 12:26 26.65614 127.91330 13131 ft 375 kts 181°
2026-04-21 12:26 26.63031 127.91407 12555 ft 373 kts 181°
2026-04-21 12:26 26.60425 127.91484 11951 ft 371 kts 181°
2026-04-21 12:26 26.57851 127.91560 11367 ft 370 kts 181°
2026-04-21 12:27 26.55306 127.91637 11042 ft 362 kts 181°
2026-04-21 12:27 26.52740 127.91712 11001 ft 369 kts 180°
2026-04-21 12:27 26.50175 127.91788 11002 ft 368 kts 181°
2026-04-21 12:27 26.47575 127.91865 11002 ft 369 kts 181°
2026-04-21 12:28 26.45005 127.91940 11004 ft 369 kts 180°
2026-04-21 12:28 26.42446 127.92017 10999 ft 369 kts 180°
2026-04-21 12:28 26.39896 127.91878 11002 ft 366 kts 191°
2026-04-21 12:28 26.37444 127.91115 10845 ft 356 kts 203°
2026-04-21 12:29 26.35163 127.90005 10369 ft 351 kts 206°
2026-04-21 12:29 26.33028 127.88917 9920 ft 347 kts 206°
2026-04-21 12:29 26.30823 127.87788 9431 ft 345 kts 206°
2026-04-21 12:29 26.28617 127.86661 8963 ft 341 kts 206°
2026-04-21 12:30 26.26485 127.85571 8523 ft 338 kts 206°
2026-04-21 12:30 26.24356 127.84485 8083 ft 334 kts 206°
2026-04-21 12:30 26.22237 127.83403 7645 ft 331 kts 205°
2026-04-21 12:30 26.20146 127.82337 7141 ft 324 kts 205°
2026-04-21 12:31 26.18138 127.81313 6769 ft 307 kts 205°
2026-04-21 12:31 26.16215 127.80334 6405 ft 294 kts 205°
2026-04-21 12:31 26.14404 127.79411 6095 ft 281 kts 204°
2026-04-21 12:31 26.12658 127.78522 5967 ft 262 kts 204°
2026-04-21 12:32 26.11042 127.77699 5940 ft 247 kts 204°
2026-04-21 12:32 26.09503 127.76917 5944 ft 234 kts 205°
2026-04-21 12:32 26.08051 127.76178 5915 ft 221 kts 205°
2026-04-21 12:32 26.06708 127.75446 5753 ft 209 kts 214°
2026-04-21 12:33 26.05700 127.74339 5399 ft 204 kts 238°
2026-04-21 12:33 26.05164 127.72897 5030 ft 200 kts 261°
2026-04-21 12:33 26.05020 127.71370 4590 ft 201 kts 266°
2026-04-21 12:33 26.04930 127.69833 4160 ft 199 kts 268°
2026-04-21 12:34 26.04866 127.68288 3709 ft 199 kts 268°
2026-04-21 12:34 26.04809 127.66773 3351 ft 193 kts 269°
2026-04-21 12:34 26.05041 127.65302 3021 ft 197 kts 301°
2026-04-21 12:34 26.05960 127.64236 2487 ft 188 kts 328°
2026-04-21 12:35 26.07169 127.63772 2090 ft 177 kts
2026-04-21 12:35 26.08389 127.63809 1859 ft 168 kts
2026-04-21 12:35 26.09511 127.63753 1659 ft 150 kts
2026-04-21 12:35 26.10507 127.63704 1471 ft 141 kts
2026-04-21 12:36 26.11475 127.63658 1285 ft 137 kts
2026-04-21 12:36 26.12432 127.63612 1087 ft 137 kts
2026-04-21 12:36 26.13384 127.63557 882 ft 137 kts 360°
2026-04-21 12:36 26.14360 127.63508 712 ft 138 kts
2026-04-21 12:37 26.15325 127.63470 518 ft 140 kts 360°
2026-04-21 12:37 26.16305 127.63425 338 ft 138 kts
2026-04-21 12:37 26.17271 127.63381 165 ft 139 kts 359°
2026-04-21 12:37 26.18233 127.63331 31 ft 132 kts
2026-04-21 12:38 26.19044 127.63303 18 ft 95 kts 357°
2026-04-21 12:38 26.19553 127.63278 18 ft 51 kts
2026-04-21 12:38 26.19759 127.63353 18 ft 23 kts 27°
2026-04-21 12:38 26.19891 127.63425 18 ft 15 kts 24°
2026-04-21 12:39 26.20001 127.63445 18 ft 16 kts 357°
2026-04-21 12:39 26.20124 127.63440 18 ft 14 kts 358°
2026-04-21 12:39 26.20224 127.63435 18 ft 12 kts 358°
2026-04-21 12:39 26.20296 127.63464 18 ft 12 kts 63°
2026-04-21 12:40 26.20305 127.63565 18 ft 13 kts 87°
2026-04-21 12:40 26.20309 127.63679 18 ft 15 kts 88°
2026-04-21 12:40 26.20313 127.63804 18 ft 16 kts 88°
2026-04-21 12:40 26.20319 127.63938 18 ft 17 kts 87°
2026-04-21 12:41 26.20325 127.64078 18 ft 18 kts 88°
2026-04-21 12:41 26.20329 127.64218 19 ft 15 kts 86°
2026-04-21 12:41 26.20363 127.64315 19 ft 13 kts 20°
2026-04-21 12:41 26.20468 127.64313 19 ft 16 kts 356°
2026-04-21 12:42 26.20585 127.64319 19 ft 17 kts 10°
2026-04-21 12:42 26.20709 127.64349 19 ft 18 kts 13°
2026-04-21 12:42 26.20828 127.64378 19 ft 16 kts 12°
2026-04-21 12:42 26.20922 127.64449 19 ft 17 kts 70°
2026-04-21 12:43 26.20904 127.64565 19 ft 14 kts 104°
2026-04-21 12:43 26.20902 127.64650 19 ft 2 kts 87°
2026-04-21 12:43 26.20902 127.64661 19 ft 2 kts 87°
2026-04-21 12:43 26.20897 127.64703 19 ft 8 kts 117°
2026-04-21 12:44 26.20826 127.64735 19 ft 14 kts 177°
2026-04-21 12:44 26.20713 127.64741 19 ft 16 kts 177°
2026-04-21 12:44 26.20662 127.64768 19 ft 6 kts 100°
2026-04-21 12:44 26.20682 127.64809 19 ft 4 kts 45°
2026-04-21 12:45 26.20709 127.64839 19 ft 4 kts 48°
2026-04-21 12:45 26.20719 127.64851 19 ft 0 kts 46°